SB KEPS @ AMSAT $ORB08059.O Orbital Elements 08059.OSCAR
HR AMSAT ORBITAL ELEMENTS FOR OSCAR SATELLITES FROM WA5QGD FORT WORTH,TX February 28, 2008 Send Subscribe/unsubscribe to KEPS at http://www.amsat.org/mailman/listinfo/keps BID: ORB08059.O TO ALL RADIO AMATEURS BT
Satellite: AO-07 Catalog number: 07530 Epoch time: 08059.79916430 Element set: 114 Inclination: 101.4812 deg RA of node: 094.9034 deg Eccentricity: 0.0012079 Arg of perigee: 115.3654 deg Mean anomaly: 244.8664 deg Mean motion: 12.53573600 rev/day Decay rate: -2.7e-07 rev/day^2 Epoch rev: 52327 Checksum: 285
Satellite: AO-10 Catalog number: 14129 Epoch time: 08058.52278192 Element set: 0476 Inclination: 025.9279 deg RA of node: 228.2479 deg Eccentricity: 0.6025524 Arg of perigee: 102.3320 deg Mean anomaly: 327.4450 deg Mean motion: 02.05872153 rev/day Decay rate: -1.94e-06 rev/day^2 Epoch rev: 18582 Checksum: 302
Satellite: UO-11 Catalog number: 14781 Epoch time: 08059.83585554 Element set: 607 Inclination: 098.1685 deg RA of node: 092.1650 deg Eccentricity: 0.0010103 Arg of perigee: 068.0753 deg Mean anomaly: 292.1527 deg Mean motion: 14.79618964 rev/day Decay rate: -2.10e-06 rev/day^2 Epoch rev: 28768 Checksum: 323
Satellite: RS-15 Catalog number: 23439 Epoch time: 08058.94728506 Element set: 0133 Inclination: 064.8211 deg RA of node: 313.3198 deg Eccentricity: 0.0150206 Arg of perigee: 143.6674 deg Mean anomaly: 217.4559 deg Mean motion: 11.27551476 rev/day Decay rate: -3.9e-07 rev/day^2 Epoch rev: 54253 Checksum: 306
Satellite: FO-29 Catalog number: 24278 Epoch time: 08059.22890360 Element set: 712 Inclination: 098.5847 deg RA of node: 349.9099 deg Eccentricity: 0.0351194 Arg of perigee: 140.1025 deg Mean anomaly: 222.6510 deg Mean motion: 13.52935963 rev/day Decay rate: 7.4e-07 rev/day^2 Epoch rev: 56952 Checksum: 329
Satellite: SO-33 Catalog number: 25509 Epoch time: 08058.75060735 Element set: 141 Inclination: 031.4273 deg RA of node: 220.7889 deg Eccentricity: 0.0354757 Arg of perigee: 141.7477 deg Mean anomaly: 220.8907 deg Mean motion: 14.28197887 rev/day Decay rate: 2.22e-06 rev/day^2 Epoch rev: 48781 Checksum: 332
Satellite: AO-40 Catalog number: 26609 Epoch time: 08058.13732626 Element set: 15 Inclination: 007.4400 deg RA of node: 095.7165 deg Eccentricity: 0.7922904 Arg of perigee: 055.7824 deg Mean anomaly: 355.6004 deg Mean motion: 01.25583892 rev/day Decay rate: -3.98e-06 rev/day^2 Epoch rev: 3364 Checksum: 309
Satellite: VO-52 Catalog number: 28650 Epoch time: 08059.10913514 Element set: 867 Inclination: 097.8011 deg RA of node: 128.6876 deg Eccentricity: 0.0028083 Arg of perigee: 138.1881 deg Mean anomaly: 222.1455 deg Mean motion: 14.81426954 rev/day Decay rate: 3.74e-06 rev/day^2 Epoch rev: 15230 Checksum: 310
Satellite: PO-63 Catalog number: 29712 Epoch time: 08059.77394701 Element set: 226 Inclination: 097.8879 deg RA of node: 119.9631 deg Eccentricity: 0.0014701 Arg of perigee: 021.0381 deg Mean anomaly: 339.1417 deg Mean motion: 14.80037451 rev/day Decay rate: 4.69e-06 rev/day^2 Epoch rev: 6128 Checksum: 313
/EX SB KEPS @ AMSAT $ORB08059.D Orbital Elements 08059.MICROS
HR AMSAT ORBITAL ELEMENTS FOR THE MICROSATS FROM WA5QGD FORT WORTH,TX February 28, 2008 Send Subscribe/unsubscribe to KEPS at http://www.amsat.org/mailman/listinfo/keps BID: ORB08059.D TO ALL RADIO AMATEURS BT
Satellite: AO-16 Catalog number: 20439 Epoch time: 08059.00518023 Element set: 262 Inclination: 098.2208 deg RA of node: 044.7556 deg Eccentricity: 0.0011510 Arg of perigee: 140.4674 deg Mean anomaly: 219.7349 deg Mean motion: 14.31785188 rev/day Decay rate: -6.0e-08 rev/day^2 Epoch rev: 94515 Checksum: 294
Satellite: LO-19 Catalog number: 20442 Epoch time: 08059.90925295 Element set: 187 Inclination: 098.1961 deg RA of node: 054.4604 deg Eccentricity: 0.0012616 Arg of perigee: 136.8768 deg Mean anomaly: 223.3393 deg Mean motion: 14.32024334 rev/day Decay rate: 1.9e-07 rev/day^2 Epoch rev: 94543 Checksum: 310
Satellite: AO-27 Catalog number: 22825 Epoch time: 08059.84884658 Element set: 909 Inclination: 098.3718 deg RA of node: 024.0481 deg Eccentricity: 0.0007832 Arg of perigee: 219.8155 deg Mean anomaly: 140.2454 deg Mean motion: 14.29231506 rev/day Decay rate: 3.6e-07 rev/day^2 Epoch rev: 75215 Checksum: 318
Satellite: IO-26 Catalog number: 22826 Epoch time: 08059.85187007 Element set: 612 Inclination: 098.3637 deg RA of node: 025.0107 deg Eccentricity: 0.0008268 Arg of perigee: 216.7944 deg Mean anomaly: 143.2680 deg Mean motion: 14.29479163 rev/day Decay rate: -1.0e-07 rev/day^2 Epoch rev: 75224 Checksum: 306
Satellite: PO-28 Catalog number: 22829 Epoch time: 08059.89197170 Element set: 885 Inclination: 098.3513 deg RA of node: 026.1727 deg Eccentricity: 0.0009526 Arg of perigee: 187.6509 deg Mean anomaly: 172.4528 deg Mean motion: 14.30180909 rev/day Decay rate: -7.4e-07 rev/day^2 Epoch rev: 75250 Checksum: 336
Satellite: GO-32 Catalog number: 25397 Epoch time: 08059.85319612 Element set: 537 Inclination: 098.3796 deg RA of node: 100.3438 deg Eccentricity: 0.0001274 Arg of perigee: 156.6143 deg Mean anomaly: 203.5075 deg Mean motion: 14.23139358 rev/day Decay rate: 5.7e-07 rev/day^2 Epoch rev: 50066 Checksum: 305
Satellite: MO-46 Catalog number: 26548 Epoch time: 08059.73953846 Element set: 35 Inclination: 064.5571 deg RA of node: 108.9326 deg Eccentricity: 0.0017310 Arg of perigee: 339.0807 deg Mean anomaly: 020.9577 deg Mean motion: 14.83230150 rev/day Decay rate: -9.5e-07 rev/day^2 Epoch rev: 40158 Checksum: 310
Satellite: NO-44 Catalog number: 26931 Epoch time: 08058.95180837 Element set: 816 Inclination: 067.0515 deg RA of node: 208.6319 deg Eccentricity: 0.0004908 Arg of perigee: 272.5050 deg Mean anomaly: 087.5508 deg Mean motion: 14.29512041 rev/day Decay rate: -2.46e-06 rev/day^2 Epoch rev: 33465 Checksum: 307
Satellite: SO-50 Catalog number: 27607 Epoch time: 08059.03341205 Element set: 540 Inclination: 064.5603 deg RA of node: 028.1645 deg Eccentricity: 0.0080893 Arg of perigee: 301.3031 deg Mean anomaly: 058.0172 deg Mean motion: 14.71330402 rev/day Decay rate: 6.2e-07 rev/day^2 Epoch rev: 27876 Checksum: 262
Satellite: CO-55 Catalog number: 27844 Epoch time: 08059.48963623 Element set: 246 Inclination: 098.7187 deg RA of node: 069.2677 deg Eccentricity: 0.0010823 Arg of perigee: 072.7116 deg Mean anomaly: 287.5247 deg Mean motion: 14.20562481 rev/day Decay rate: 2.7e-07 rev/day^2 Epoch rev: 24186 Checksum: 334
Satellite: CO-57 Catalog number: 27848 Epoch time: 08059.05039295 Element set: 199 Inclination: 098.7194 deg RA of node: 067.9543 deg Eccentricity: 0.0010641 Arg of perigee: 077.6680 deg Mean anomaly: 282.5705 deg Mean motion: 14.20374320 rev/day Decay rate: 3.0e-07 rev/day^2 Epoch rev: 24177 Checksum: 323
Satellite: AO-51 Catalog number: 28375 Epoch time: 08059.10016649 Element set: 41 Inclination: 098.0832 deg RA of node: 089.8021 deg Eccentricity: 0.0084415 Arg of perigee: 126.1114 deg Mean anomaly: 234.7924 deg Mean motion: 14.40597958 rev/day Decay rate: 8.0e-08 rev/day^2 Epoch rev: 19255 Checksum: 306
Satellite: CO-56 Catalog number: 28941 Epoch time: 08059.22608208 Element set: 868 Inclination: 098.1037 deg RA of node: 155.4750 deg Eccentricity: 0.0187408 Arg of perigee: 079.4499 deg Mean anomaly: 282.7799 deg Mean motion: 15.50978090 rev/day Decay rate: 2.3068e-04 rev/day^2 Epoch rev: 11296 Checksum: 366
Satellite: CP4 Catalog number: 31122 Epoch time: 08059.68973612 Element set: 273 Inclination: 098.0538 deg RA of node: 129.2919 deg Eccentricity: 0.0084249 Arg of perigee: 309.2309 deg Mean anomaly: 050.1435 deg Mean motion: 14.55091602 rev/day Decay rate: 5.48e-06 rev/day^2 Epoch rev: 4615 Checksum: 301
Satellite: CP3 Catalog number: 31128 Epoch time: 08059.07218519 Element set: 268 Inclination: 098.0507 deg RA of node: 127.1071 deg Eccentricity: 0.0101729 Arg of perigee: 315.7740 deg Mean anomaly: 043.5363 deg Mean motion: 14.51917079 rev/day Decay rate: -4.8e-07 rev/day^2 Epoch rev: 4595 Checksum: 298
Satellite: LIBERT Catalog number: 31129 Epoch time: 08059.67320709 Element set: 786 Inclination: 098.0511 deg RA of node: 127.7151 deg Eccentricity: 0.0102140 Arg of perigee: 314.1377 deg Mean anomaly: 045.1408 deg Mean motion: 14.52006724 rev/day Decay rate: 3.37e-06 rev/day^2 Epoch rev: 4602 Checksum: 262
/EX SB KEPS @ AMSAT $ORB08059.W Orbital Elements 08059.WEATHER
HR AMSAT ORBITAL ELEMENTS FOR WEATHER SATELLITES FROM WA5QGD FORT WORTH,TX February 28, 2008 Send Subscribe/unsubscribe to KEPS at http://www.amsat.org/mailman/listinfo/keps BID: ORB08059.W TO ALL RADIO AMATEURS BT
Satellite: NOAA-10 Catalog number: 16969 Epoch time: 08059.09872828 Element set: 22 Inclination: 098.7319 deg RA of node: 081.2414 deg Eccentricity: 0.0012805 Arg of perigee: 139.3642 deg Mean anomaly: 220.8490 deg Mean motion: 14.27351327 rev/day Decay rate: -4.4e-07 rev/day^2 Epoch rev: 11573 Checksum: 300
Satellite: NOAA-11 Catalog number: 19531 Epoch time: 08059.34345984 Element set: 57 Inclination: 098.7969 deg RA of node: 150.2060 deg Eccentricity: 0.0011941 Arg of perigee: 025.1134 deg Mean anomaly: 335.0587 deg Mean motion: 14.14866095 rev/day Decay rate: -1.78e-06 rev/day^2 Epoch rev: 237 Checksum: 303
Satellite: NOAA-12 Catalog number: 21263 Epoch time: 08059.49631089 Element set: 564 Inclination: 098.7664 deg RA of node: 061.4630 deg Eccentricity: 0.0013418 Arg of perigee: 084.6106 deg Mean anomaly: 275.6604 deg Mean motion: 14.25517976 rev/day Decay rate: -9.3e-07 rev/day^2 Epoch rev: 87276 Checksum: 327
Satellite: MET-3/5 Catalog number: 21655 Epoch time: 08059.41742151 Element set: 397 Inclination: 082.5576 deg RA of node: 181.9162 deg Eccentricity: 0.0012192 Arg of perigee: 290.2123 deg Mean anomaly: 069.7682 deg Mean motion: 13.17014140 rev/day Decay rate: 5.1e-07 rev/day^2 Epoch rev: 79513 Checksum: 290
